SCP
0 0 0 0 0 0 0 0 0 0 0 0 0 0 -0 -0 -0 -0 0 0 0 0 0 0 0 0 0 0 0 0 0 0 0 0 0 0 0 0 0 0 0 0 0
0 0 0 0 0 0 0 0 0 0 0 0 0 0 -0 -0 -0 -0 0 0 0 0 0 0 0 0 0 0 0 0 0 0 0 0 0 0 0 0 0 0 0 0 0
0 0 0 0 0 0 0 0 0 0 0 0 0 -0 -0 -0 -0 0 0 0 0 0 0 0 0 0 0 0 0 0 0 0 0 0 0 0 0 0 0 0 0 0 0
0 0 0 0 0 0 0 0 0 0 0 0 0 -0 -0 -0 -0 0 0 0 0 0 0 0 0 0 0 0 0 0 0 0 0 0 0 0 0 0 0 0 0 0 0
0 0 0 0 0 0 0 0 0 0 0 0 0 0 -0 -0 0 0 0 0 0 0 0 0 0 0 0 0 0 0 0 0 0 0 0 0 0 0 0 0 0 0 0
-0 -0 0 0 0 0 0 0 0 0 0 0 0 0 0 0 0 0 0 0 0 0 0 0 0 0 0 0 0 0 0 0 0 0 0 0 0 0 0 0 0 0 0
-0 -0 -0 -0 -0 0 0 0 0 0 0 0 0 0 0 0 0 0 0 0 0 0 0 0 0 0 0 0 0 0 0 0 0 0 0 0 0 0 0 0 0 0 0
-0 -0 -0 -0 -0 -0 -0 0 0 0 0 0 0 0 0 0 0 0 0 0 0 0 0 0 0 0 0 0 0 0 0 0 0 0 0 0 0 0 0 0 0 0 0
-0 -0 -0 -0 -0 -0 -0 0 0 0 0 0 0 0 0 0 0 0 0 0 0 0 0 0 0 0 0 0 0 0 0 0 0 0 0 0 0 0 0 0 0 0 0
-0 -0 -0 -0 -0 -0 -0 0 0 0 0 0 0 0 0 0 0 0 0 0 0 0 0 0 0 0 0 0 0 0 0 0 0 0 0 0 0 0 0 0 0 0 0
-0 -0 -0 -0 -0 0 0 0 0 0 0 0 0 0 0 0 0 0 0 0 0 0 0 0 0 0 0 0 0 0 0 0 0 0 0 0 0 0 0 0 0 0 0
-0 -0 -0 -0 0 0 0 0 0 0 0 0 0 0 0 0 0 0 0 0 0 0 0 0 0 0 0 0 0 0 0 0 0 0 0 0 0 0 0 0 0 0 0
-0 -0 0 0 0 0 0 0 0 0 0 0 0 0 0 0 0 0 0 0 0 0 0 0 0 0 0 0 0 0 0 0 0 0 0 0 0 0 0 0 0 0 0
-0 0 0 0 0 0 0 0 0 0 0 0 0 0 0 0 0 0 0 0 0 0 0 0 0 0 0 0 0 0 0 0 0 0 0 0 0 0 0 0 0 0 0
0 0 0 0 0 0 0 0 0 0 0 0 0 0 0 0 0 0 0 0 0 0 0 0 0 0 0 0 0 0 0 0 0 0 0 0 0 0 0 0 0 0 0
0 0 0 0 0 0 0 0 0 0 1 1 1 1 1 1 1 1 1 1 0 0 0 0 0 0 0 0 0 0 0 0 0 0 0 0 0 0 0 0 0 0 0
0 0 0 0 0 0 1 1 1 1 1 1 1 1 1 1 1 1 1 1 1 1 0 0 0 0 0 0 0 0 0 0 0 0 0 0 0 0 0 0 0 0 0
0 0 0 0 1 1 1 1 1 1 1 1 1 1 1 1 1 1 1 1 1 1 0 0 0 0 0 0 0 0 0 0 0 0 0 0 0 0 0 0 0 0 0
0 0 1 1 1 1 1 1 1 1 1 1 1 1 1 1 1 1 1 1 1 1 1 0 0 0 0 0 0 0 0 0 0 0 0 0 0 0 0 0 0 0 0
0 0 1 1 1 1 1 1 1 1 1 1 1 1 1 1 1 1 1 1 1 1 1 1 0 0 0 1 0 0 0 0 0 0 0 0 0 0 0 0 0 0 0
0 1 1 1 1 1 1 1 1 1 1 1 1 1 1 1 1 1 1 1 1 1 1 0 0 0 1 1 0 0 0 0 0 0 0 0 0 0 0 0 0 0 0
1 1 1 1 1 0 0 0 1 1 1 1 1 1 1 1 0 0 0 0 0 0 0 0 0 0 0 1 1 0 0 0 0 0 0 0 0 0 0 0 0 0 0
1 1 1 1 1 0 0 0 0 0 1 1 1 1 1 0 0 0 0 0 0 0 0 0 0 0 0 0 1 1 1 1 1 1 1 0 0 0 0 0 0 0 0
1 1 1 1 1 0 0 0 0 0 0 1 1 1 0 0 0 0 0 0 0 0 0 0 0 0 0 0 0 1 1 1 1 1 1 1 0 0 0 0 0 0 0
1 1 1 1 1 1 0 0 0 0 0 1 1 0 0 0 0 0 0 0 0 0 0 0 0 0 0 0 0 0 0 1 1 1 1 1 1 0 0 0 0 0 0
1 1 1 1 1 1 0 0 0 0 0 1 1 0 0 0 0 0 0 0 0 0 0 0 0 0 0 0 0 0 0 0 1 1 1 1 1 0 0 0 0 0 0
Wind_Speed
2 3 2 1 1 2 2 1 2 2 1 1 1 2 2 3 3 2 4 6 4 3 2 2 3 4 4 4 4 4 4 4 4 4 4 4 4 4 5 5 6 6 7
2 2 2 1 2 1 2 1 1 1 1 1 1 2 2 2 3 1 2 5 6 4 2 2 2 3 4 4 4 4 4 4 4 4 4 4 4 4 4 4 5 6 6
2 1 1 1 2 2 2 1 1 0 1 1 2 2 1 1 1 1 1 1 4 6 4 3 2 2 3 3 4 4 4 4 4 4 4 4 4 3 4 4 5 5 6
2 1 1 1 1 0 0 1 1 0 1 1 1 1 1 1 1 1 1 1 0 2 6 5 3 3 3 3 4 4 4 4 4 4 4 4 4 3 3 4 5 5 5
2 2 0 1 1 1 0 0 2 1 0 0 1 1 1 1 1 1 1 0 0 0 2 6 6 4 3 3 4 4 4 4 5 4 4 4 4 3 3 3 5 6 6
2 2 2 1 1 1 0 0 1 0 1 1 1 1 1 0 1 1 1 1 1 1 1 2 4 5 6 4 3 4 4 4 5 5 5 4 4 4 4 4 5 6 7
1 2 1 1 1 0 1 1 1 2 1 1 1 2 2 2 1 1 1 0 1 1 1 1 1 1 4 7 5 4 4 4 4 5 5 5 4 4 4 4 4 6 7
1 2 1 2 1 1 1 1 1 2 1 1 2 2 2 3 3 2 1 1 1 1 2 2 1 1 1 2 5 6 4 4 4 5 5 5 5 4 4 4 4 6 7
2 1 1 2 1 2 1 1 1 2 1 1 2 3 3 1 1 3 2 1 1 1 1 1 2 2 2 1 3 6 5 3 4 4 4 5 5 5 5 5 5 5 6
1 1 1 1 2 2 1 2 1 2 2 2 1 1 3 3 3 1 2 2 2 1 1 1 1 2 2 2 2 3 4 3 3 3 4 4 4 5 5 5 5 5 5
2 1 1 1 1 2 1 1 1 3 2 2 2 1 1 2 4 3 1 1 1 1 1 2 1 1 2 2 2 3 4 3 3 3 3 3 3 4 5 5 5 5 5
2 2 2 2 2 1 1 2 2 2 2 3 3 2 2 2 2 2 2 2 2 1 1 1 2 1 2 2 1 4 4 3 3 3 3 3 3 3 4 4 5 5 5
2 2 2 2 2 2 2 2 2 2 3 3 3 3 3 3 2 3 3 3 3 2 2 3 2 2 2 2 2 4 5 4 3 3 3 3 3 3 3 4 4 5 5
2 1 2 2 2 3 3 2 3 3 3 3 4 3 3 3 3 3 3 3 4 3 2 2 1 2 2 2 2 5 4 6 5 4 4 4 3 3 3 3 3 4 4
3 3 3 3 3 3 3 3 3 4 3 4 4 4 4 3 3 3 3 4 4 5 3 2 3 2 2 2 2 4 3 5 6 5 5 5 4 4 4 4 4 3 3
3 3 4 4 4 4 4 4 4 4 5 5 4 4 5 4 3 3 4 4 5 6 5 2 2 2 1 2 3 4 4 6 7 6 6 6 6 5 5 5 5 5 5
4 5 4 4 5 4 4 4 5 4 5 5 5 5 5 5 4 4 4 4 4 5 5 4 3 1 3 4 3 4 5 5 5 8 7 6 6 6 6 5 5 5 6
5 5 5 5 6 5 5 5 5 5 5 5 5 5 5 4 5 5 4 4 4 4 6 6 4 3 4 4 4 5 5 4 4 7 8 7 7 6 6 6 6 6 6
5 5 5 5 5 5 5 5 5 5 6 5 5 5 5 4 5 4 5 5 5 5 5 6 6 3 4 3 4 5 6 4 6 5 9 9 8 8 7 7 7 7 6
5 5 5 5 5 5 5 5 5 5 6 5 5 5 5 5 4 5 5 5 5 5 5 6 5 4 4 3 4 5 5 5 5 5 4 5 8 10 9 9 7 7 7
5 5 5 5 5 5 4 4 5 6 5 5 5 5 4 3 3 4 5 4 5 5 5 5 5 5 4 3 4 5 5 4 4 4 4 4 5 6 7 9 9 8 7
5 5 5 5 5 4 1 2 5 6 5 6 5 5 4 5 4 5 4 5 5 6 6 6 5 5 5 5 4 5 5 5 5 3 4 5 5 5 5 5 6 8 8
5 5 5 5 5 4 3 4 5 6 6 5 5 5 5 3 4 5 5 7 7 7 7 8 8 7 6 5 6 7 5 6 6 3 4 6 5 5 5 3 6 7 8
5 5 5 6 5 4 3 3 4 7 7 6 6 6 5 5 5 5 6 5 6 6 7 7 7 8 7 6 6 7 7 7 6 5 5 6 5 5 4 4 7 8 8
4 4 4 5 4 3 4 4 4 5 5 6 5 5 5 5 2 3 5 6 6 6 5 6 6 7 6 6 6 5 5 6 6 5 4 5 5 5 5 5 5 10 10
4 4 4 5 5 4 4 5 5 5 5 5 4 4 4 5 2 3 5 6 6 6 5 4 5 6 7 7 8 7 6 6 6 5 3 4 5 4 5 4 3 4 6
Wind_Direction
115 107 100 93 92 101 125 106 77 81 76 110 81 69 63 70 56 57 100 109 113 118 131 142 155 164 169 164 163 163 166 169 168 168 170 170 174 180 188 191 190 191 195
108 136 136 106 97 94 72 72 93 125 106 69 75 81 59 65 76 51 88 126 131 129 129 138 156 160 169 166 165 165 167 167 168 167 168 169 171 180 187 186 182 185 190
131 168 123 129 80 83 108 116 103 141 142 134 115 106 113 81 77 76 62 84 141 144 136 131 134 152 170 171 168 168 172 172 169 166 164 164 169 172 186 188 188 191 195
175 215 167 112 103 131 139 123 159 86 78 138 124 124 123 136 146 152 154 159 204 134 144 144 151 158 179 180 179 176 173 170 168 166 164 168 171 173 176 192 192 194 195
200 222 171 107 193 185 229 299 82 350 131 82 158 161 176 175 155 152 122 155 119 162 134 143 162 170 181 192 195 187 179 173 173 173 174 176 175 180 189 192 194 195 196
208 256 186 168 238 196 187 65 85 284 282 265 278 112 233 177 185 123 216 147 151 175 157 134 169 169 177 185 189 187 187 179 179 181 185 189 188 187 195 202 205 203 204
198 244 269 166 239 206 284 241 240 188 217 249 244 203 173 171 147 162 212 208 154 156 153 156 208 168 168 179 184 185 195 198 188 187 192 195 198 203 208 210 215 212 210
244 215 235 234 210 206 220 245 255 287 266 219 286 275 199 163 181 163 182 194 211 190 178 171 159 191 245 174 148 172 191 201 201 197 200 203 204 208 216 216 218 215 213
210 279 258 259 259 254 215 238 242 255 280 250 298 308 311 4 127 151 169 172 196 247 228 181 183 186 211 200 160 160 179 195 202 203 202 204 204 207 216 223 224 224 220
216 219 234 242 265 278 243 239 185 260 255 260 199 266 312 342 305 215 176 155 167 207 248 258 191 184 201 210 153 112 159 187 201 208 209 209 211 214 219 227 232 232 230
214 224 213 222 234 257 270 294 270 273 264 274 276 250 238 230 260 278 280 253 207 189 201 219 229 215 194 211 202 127 146 172 196 201 206 212 218 227 229 232 238 240 241
194 191 213 221 232 243 225 243 254 239 272 286 292 291 274 271 268 274 271 255 248 206 214 219 225 211 215 214 150 117 152 178 197 204 211 217 222 233 240 239 242 247 246
196 188 223 225 238 235 237 244 236 260 249 251 261 272 278 277 284 284 281 282 278 241 216 221 212 218 229 219 155 156 166 183 198 207 214 220 228 236 240 243 245 250 249
225 202 216 218 225 236 240 233 240 235 237 249 260 272 271 268 265 266 279 284 274 257 229 237 210 215 237 238 135 204 187 181 199 206 207 208 220 234 237 237 241 250 252
218 208 218 215 219 224 240 243 246 251 249 251 251 242 254 261 256 262 266 270 277 278 265 219 226 194 230 231 176 234 229 175 195 204 207 209 215 222 229 233 236 245 247
233 224 220 222 223 223 225 238 242 241 246 245 251 267 267 267 271 260 257 259 264 276 280 285 251 236 266 255 192 237 235 179 194 201 210 216 220 223 223 229 235 238 238
218 224 225 226 230 230 232 237 249 244 247 250 250 245 251 269 272 266 254 253 256 263 266 270 263 227 235 263 241 246 238 231 200 189 204 215 222 226 228 231 234 237 239
220 219 225 227 231 232 234 238 243 247 250 252 257 258 258 255 255 266 266 261 259 262 263 271 268 249 239 244 250 254 250 241 245 174 192 208 214 223 230 233 236 240 241
218 222 223 228 234 237 237 240 244 250 254 255 256 256 259 261 260 262 263 263 260 255 256 262 263 257 249 244 249 250 250 249 253 195 188 201 212 221 227 230 235 239 240
214 220 226 231 235 239 242 244 245 250 255 256 256 255 257 260 262 263 258 261 267 266 255 257 260 253 244 237 246 251 247 232 244 246 223 215 207 212 221 223 228 233 235
214 215 224 227 231 233 241 252 253 249 253 255 254 255 257 274 292 283 289 284 274 268 263 258 257 258 256 251 252 257 260 257 243 243 247 239 220 223 219 218 219 225 231
216 215 220 225 229 234 198 258 266 263 259 258 259 260 253 232 238 233 255 272 282 274 276 272 266 265 263 263 268 265 265 262 261 234 248 256 247 245 238 233 189 201 220
216 221 224 227 232 229 193 220 245 261 258 259 260 261 268 264 251 257 233 224 236 244 256 270 274 273 273 273 272 265 262 265 271 269 253 259 250 251 251 225 169 193 212
221 226 229 232 238 220 182 217 236 245 254 254 253 253 259 267 269 277 273 269 264 248 241 246 266 272 275 278 267 264 265 258 259 252 246 263 257 256 258 241 184 197 211
226 228 228 228 234 217 181 201 236 247 246 250 251 253 257 258 260 275 268 270 273 270 243 241 255 265 276 270 270 268 258 254 259 255 237 260 268 265 259 250 208 196 210
225 230 227 229 231 229 186 194 230 255 259 261 250 248 245 258 241 237 260 267 268 273 280 261 248 248 249 237 226 241 256 259 268 265 221 250 267 273 265 248 244 217 220